DEHND EDDG-ZZZZ

Flight info

Callsign DEHND
Flight time N/A
Altitude 2000
Route LOCAL VFR
Aircraft C152/L-SFG/C

Departure

Time 2026-04-15 16:39
Airport Münster Osnabrück Airport (EDDG)

Arrival

Time N/A
Airport ZZZZ
Time Latitude Longitude Altitude Speed Heading
2026-04-15 16:39 52.18045 7.54264 2016 ft 101 kts 308°
2026-04-15 16:39 52.18517 7.53412 2044 ft 102 kts 310°
2026-04-15 16:39 52.18867 7.52449 2095 ft 99 kts 275°
2026-04-15 16:40 52.18792 7.51336 2117 ft 100 kts 256°
2026-04-15 16:40 52.18540 7.50305 2193 ft 98 kts 238°
2026-04-15 16:40 52.18137 7.49448 2261 ft 97 kts 229°
2026-04-15 16:40 52.17748 7.48550 2301 ft 100 kts 239°
2026-04-15 16:41 52.17427 7.47575 2389 ft 97 kts 243°
2026-04-15 16:41 52.17143 7.46586 2407 ft 97 kts 246°
2026-04-15 16:41 52.16887 7.45565 2394 ft 98 kts 248°
2026-04-15 16:41 52.16649 7.44518 2422 ft 96 kts 247°
2026-04-15 16:42 52.16347 7.43539 2410 ft 98 kts 236°
2026-04-15 16:42 52.15905 7.42715 2433 ft 96 kts 225°
2026-04-15 16:42 52.15449 7.41893 2424 ft 98 kts 231°
2026-04-15 16:42 52.15033 7.41033 2469 ft 96 kts 232°
2026-04-15 16:43 52.14655 7.40129 2489 ft 97 kts 238°
2026-04-15 16:43 52.14340 7.39182 2506 ft 97 kts 243°
2026-04-15 16:43 52.14064 7.38182 2500 ft 95 kts 246°
2026-04-15 16:43 52.13824 7.37170 2495 ft 96 kts 249°
2026-04-15 16:44 52.13616 7.36129 2472 ft 100 kts 252°
2026-04-15 16:44 52.13449 7.35010 2493 ft 99 kts 258°
2026-04-15 16:44 52.13362 7.33938 2539 ft 99 kts 264°
2026-04-15 16:44 52.13334 7.32828 2625 ft 94 kts 268°
2026-04-15 16:45 52.13325 7.31756 2696 ft 97 kts 264°
2026-04-15 16:45 52.13153 7.30721 2816 ft 95 kts 240°
2026-04-15 16:45 52.12699 7.29942 2887 ft 96 kts 217°
2026-04-15 16:45 52.12332 7.29553 2981 ft 95 kts 210°
2026-04-15 16:46 52.11733 7.29078 3033 ft 97 kts 206°
2026-04-15 16:46 52.11132 7.28595 3105 ft 97 kts 208°
2026-04-15 16:46 52.10531 7.28134 3160 ft 96 kts 205°
2026-04-15 16:46 52.09927 7.27759 3211 ft 97 kts 199°
2026-04-15 16:47 52.09291 7.27446 3340 ft 97 kts 196°
2026-04-15 16:47 52.08622 7.27379 3438 ft 99 kts 177°
2026-04-15 16:47 52.07950 7.27560 3518 ft 97 kts 173°
2026-04-15 16:47 52.07271 7.27737 3586 ft 100 kts 173°
2026-04-15 16:48 52.06615 7.27913 3677 ft 96 kts 176°
2026-04-15 16:48 52.05930 7.27916 3647 ft 99 kts 188°
2026-04-15 16:48 52.05264 7.27685 3655 ft 97 kts 198°
2026-04-15 16:48 52.04634 7.27261 3627 ft 98 kts 208°
2026-04-15 16:49 52.04058 7.26680 3653 ft 97 kts 214°
2026-04-15 16:49 52.03487 7.26093 3647 ft 97 kts 210°
2026-04-15 16:49 52.02917 7.25513 3636 ft 98 kts 218°
2026-04-15 16:49 52.02408 7.24772 3706 ft 97 kts 222°
2026-04-15 16:50 52.01799 7.24312 3712 ft 99 kts 193°
2026-04-15 16:50 52.01119 7.24112 3748 ft 98 kts 188°
2026-04-15 16:50 52.00444 7.24052 3775 ft 98 kts 183°
2026-04-15 16:50 51.99758 7.23982 3746 ft 99 kts 188°
2026-04-15 16:51 51.99096 7.23792 3750 ft 98 kts 197°
2026-04-15 16:51 51.98451 7.23409 3730 ft 98 kts 206°
2026-04-15 16:51 51.97868 7.22859 3728 ft 97 kts 216°
2026-04-15 16:51 51.97336 7.22163 3715 ft 99 kts 223°
2026-04-15 16:52 51.96765 7.21595 3711 ft 98 kts 197°
2026-04-15 16:52 51.96086 7.21396 3674 ft 99 kts 187°
2026-04-15 16:52 51.95397 7.21419 3686 ft 99 kts 176°
2026-04-15 16:52 51.94707 7.21514 3674 ft 101 kts 178°
2026-04-15 16:53 51.94024 7.21667 3677 ft 99 kts 172°
2026-04-15 16:53 51.93343 7.21950 3677 ft 101 kts 168°
2026-04-15 16:53 51.92655 7.22124 3656 ft 100 kts 177°
2026-04-15 16:53 51.91974 7.22133 3631 ft 99 kts 186°
2026-04-15 16:54 51.91291 7.22009 3618 ft 98 kts 189°
2026-04-15 16:54 51.90616 7.21823 3607 ft 98 kts 194°
2026-04-15 16:54 51.89948 7.21625 3606 ft 97 kts 190°
2026-04-15 16:54 51.89270 7.21504 3563 ft 99 kts 187°
2026-04-15 16:55 51.88587 7.21348 3563 ft 99 kts 199°
2026-04-15 16:55 51.87961 7.20868 3551 ft 98 kts 207°
2026-04-15 16:55 51.87355 7.20411 3549 ft 98 kts 206°
2026-04-15 16:55 51.86693 7.20080 3522 ft 100 kts 189°
2026-04-15 16:56 51.86011 7.19916 3480 ft 99 kts 192°
2026-04-15 16:56 51.85345 7.19702 3590 ft 93 kts 193°
2026-04-15 16:56 51.84731 7.19474 3764 ft 88 kts 195°
2026-04-15 16:56 51.84153 7.19249 3950 ft 85 kts 196°
2026-04-15 16:57 51.83550 7.18994 4017 ft 95 kts 196°
2026-04-15 16:57 51.82902 7.18707 4061 ft 94 kts 197°
2026-04-15 16:57 51.82303 7.18452 4098 ft 80 kts 198°
2026-04-15 16:57 51.81843 7.18228 4092 ft 58 kts 198°
2026-04-15 16:58 51.81522 7.18074 3933 ft 36 kts 198°
2026-04-15 16:58 51.80999 7.17809 3471 ft 83 kts 203°
2026-04-15 16:58 51.80461 7.17430 3637 ft 85 kts 206°
2026-04-15 16:58 51.79922 7.17054 3862 ft 74 kts 203°
2026-04-15 16:59 51.79418 7.16867 4019 ft 77 kts 193°
2026-04-15 16:59 51.78930 7.16682 4080 ft 68 kts 196°
2026-04-15 16:59 51.78540 7.16520 4075 ft 47 kts 198°
2026-04-15 16:59 51.78474 7.16744 2530 ft 127 kts 50°
2026-04-15 17:00 51.78992 7.18028 2257 ft 124 kts 62°
2026-04-15 17:00 51.79079 7.19201 2541 ft 100 kts 109°
2026-04-15 17:00 51.78535 7.19645 2625 ft 96 kts 206°
2026-04-15 17:00 51.78399 7.18740 2691 ft 96 kts 298°
2026-04-15 17:01 51.78719 7.17897 2903 ft 86 kts 301°
2026-04-15 17:01 51.79057 7.17027 2942 ft 94 kts 302°
2026-04-15 17:01 51.79116 7.16183 2964 ft 98 kts 187°
2026-04-15 17:01 51.79261 7.16557 2924 ft 98 kts 301°
2026-04-15 17:02 51.78999 7.16473 2935 ft 103 kts 74°
2026-04-15 17:02 51.79393 7.17454 2960 ft 103 kts 66°
2026-04-15 17:02 51.79320 7.18527 3108 ft 97 kts 129°
2026-04-15 17:02 51.78746 7.18990 3223 ft 94 kts 181°
2026-04-15 17:03 51.78138 7.18757 3406 ft 85 kts 200°
2026-04-15 17:03 51.77565 7.18435 3505 ft 91 kts 203°
2026-04-15 17:03 51.76989 7.18112 3683 ft 86 kts 199°
2026-04-15 17:03 51.76415 7.17781 3812 ft 88 kts 204°
2026-04-15 17:04 51.76190 7.17641 3869 ft 87 kts 202°
2026-04-15 17:04 51.75623 7.17377 3997 ft 88 kts 192°
2026-04-15 17:05 51.75002 7.17261 4090 ft 88 kts 190°
2026-04-15 17:05 51.74764 7.17203 4117 ft 84 kts 192°
2026-04-15 17:05 51.74398 7.17084 4155 ft 75 kts 195°
2026-04-15 17:05 51.73971 7.16876 4156 ft 54 kts 201°
2026-04-15 17:06 51.73753 7.16641 3463 ft 60 kts 295°
2026-04-15 17:06 51.74481 7.16003 2646 ft 109 kts 325°
2026-04-15 17:06 51.74642 7.15088 2828 ft 92 kts 247°
2026-04-15 17:06 51.74142 7.14556 2860 ft 92 kts 180°
2026-04-15 17:07 51.73476 7.14655 2851 ft 91 kts 179°
2026-04-15 17:07 51.72797 7.14705 2723 ft 98 kts 188°
2026-04-15 17:07 51.72108 7.14615 2619 ft 104 kts 187°
2026-04-15 17:07 51.71368 7.14599 2506 ft 110 kts 175°
2026-04-15 17:08 51.70695 7.15080 2493 ft 107 kts 141°
2026-04-15 17:08 51.70156 7.15966 2386 ft 114 kts 137°
2026-04-15 17:08 51.69578 7.16755 2403 ft 106 kts 144°
2026-04-15 17:08 51.68983 7.17479 2370 ft 108 kts 146°
2026-04-15 17:09 51.68359 7.18138 2344 ft 107 kts 156°
2026-04-15 17:09 51.67639 7.18482 2331 ft 106 kts 170°
2026-04-15 17:09 51.66942 7.18737 2380 ft 105 kts 168°
2026-04-15 17:09 51.66229 7.19066 2374 ft 106 kts 168°
2026-04-15 17:10 51.65506 7.19214 2416 ft 104 kts 181°
2026-04-15 17:10 51.64771 7.19203 2404 ft 106 kts 181°
2026-04-15 17:10 51.64046 7.19360 2446 ft 106 kts 171°
2026-04-15 17:10 51.63312 7.19492 2441 ft 106 kts 185°
2026-04-15 17:11 51.62576 7.19530 2418 ft 107 kts 176°
2026-04-15 17:11 51.61858 7.19670 2474 ft 104 kts 172°
2026-04-15 17:11 51.61151 7.20001 2477 ft 107 kts 160°
2026-04-15 17:12 51.59880 7.21198 2524 ft 108 kts 136°
2026-04-15 17:12 51.59510 7.22259 2532 ft 110 kts 106°
2026-04-15 17:12 51.59432 7.23477 2568 ft 110 kts 91°
2026-04-15 17:12 51.59424 7.24689 2593 ft 109 kts 94°
2026-04-15 17:13 51.59309 7.25904 2604 ft 108 kts 104°
2026-04-15 17:13 51.59212 7.27070 2613 ft 108 kts 93°
2026-04-15 17:13 51.59194 7.28289 2600 ft 109 kts 94°
2026-04-15 17:13 51.59113 7.29500 2596 ft 109 kts 101°
2026-04-15 17:14 51.58941 7.30683 2636 ft 108 kts 107°
2026-04-15 17:14 51.58799 7.31873 2651 ft 109 kts 99°
2026-04-15 17:14 51.58698 7.33083 2657 ft 110 kts 98°
2026-04-15 17:14 51.58627 7.34298 2698 ft 107 kts 96°
2026-04-15 17:15 51.58547 7.35502 2612 ft 111 kts 99°
2026-04-15 17:15 51.58418 7.36713 2591 ft 108 kts 103°
2026-04-15 17:15 51.58273 7.37879 2528 ft 109 kts 98°
2026-04-15 17:15 51.58251 7.39103 2459 ft 109 kts 89°
2026-04-15 17:16 51.58267 7.40325 2419 ft 108 kts 88°
2026-04-15 17:16 51.58296 7.41548 2344 ft 111 kts 92°
2026-04-15 17:16 51.58237 7.42760 2317 ft 108 kts 99°
2026-04-15 17:16 51.58100 7.43958 2271 ft 108 kts 104°
2026-04-15 17:17 51.57893 7.45132 2213 ft 109 kts 110°
2026-04-15 17:17 51.57758 7.46282 2196 ft 108 kts 94°
2026-04-15 17:17 51.57723 7.47500 2153 ft 107 kts 94°
2026-04-15 17:17 51.57671 7.48679 2102 ft 107 kts 95°
2026-04-15 17:18 51.57624 7.49883 2036 ft 107 kts 91°
2026-04-15 17:18 51.57714 7.51075 1980 ft 107 kts 78°
2026-04-15 17:18 51.57885 7.52247 1924 ft 107 kts 77°
2026-04-15 17:18 51.57996 7.53422 1908 ft 103 kts 97°
2026-04-15 17:19 51.57602 7.54279 1960 ft 98 kts 160°
2026-04-15 17:19 51.56966 7.54706 1954 ft 100 kts 159°
2026-04-15 17:19 51.56406 7.55340 1934 ft 102 kts 138°
2026-04-15 17:19 51.55846 7.56017 1908 ft 99 kts 159°
2026-04-15 17:20 51.55187 7.56256 1917 ft 96 kts 171°
2026-04-15 17:20 51.54539 7.56532 1870 ft 99 kts 166°
2026-04-15 17:20 51.53881 7.56861 1838 ft 99 kts 165°
2026-04-15 17:20 51.53233 7.57218 1802 ft 95 kts 146°
2026-04-15 17:21 51.53104 7.58204 1727 ft 101 kts 77°
2026-04-15 17:21 51.53326 7.59278 1683 ft 101 kts 71°
2026-04-15 17:21 51.53558 7.60312 1630 ft 96 kts 70°
2026-04-15 17:21 51.53778 7.61280 1620 ft 88 kts 70°
2026-04-15 17:22 51.53949 7.62105 1555 ft 76 kts 73°
2026-04-15 17:22 51.54036 7.62915 1477 ft 67 kts 104°
2026-04-15 17:22 51.53766 7.63401 1403 ft 57 kts 163°
2026-04-15 17:22 51.53387 7.63713 1194 ft 62 kts 157°
2026-04-15 17:23 51.52996 7.63959 1007 ft 59 kts 178°
2026-04-15 17:23 51.52678 7.63615 819 ft 59 kts 237°
2026-04-15 17:23 51.52482 7.63048 651 ft 58 kts 235°
2026-04-15 17:23 51.52284 7.62486 534 ft 57 kts 236°
2026-04-15 17:24 51.52088 7.61943 428 ft 57 kts 236°
2026-04-15 17:24 51.51926 7.61503 412 ft 35 kts 243°
2026-04-15 17:24 51.51798 7.61132 414 ft 39 kts 240°
2026-04-15 17:24 51.51679 7.60788 421 ft 32 kts 240°
2026-04-15 17:25 51.51592 7.60609 419 ft 13 kts 189°
2026-04-15 17:25 51.51528 7.60676 417 ft 11 kts 103°
2026-04-15 17:25 51.51541 7.60789 415 ft 10 kts 71°
2026-04-15 17:25 51.51562 7.60919 421 ft 15 kts 79°
2026-04-15 17:26 51.51543 7.61078 426 ft 11 kts 169°
2026-04-15 17:26 51.51480 7.60972 431 ft 17 kts 237°
2026-04-15 17:26 51.51411 7.60778 432 ft 22 kts 239°
2026-04-15 17:26 51.51331 7.60550 440 ft 25 kts 244°
2026-04-15 17:27 51.51241 7.60293 441 ft 28 kts 241°
2026-04-15 17:27 51.51173 7.60173 453 ft 9 kts 160°
2026-04-15 17:27 51.51187 7.60283 454 ft 11 kts 54°
2026-04-15 17:27 51.51199 7.60385 457 ft 6 kts 105°
2026-04-15 17:28 51.51199 7.60387 457 ft 0 kts 101°